| time (UTC) | temp F | wind direction | speed MPH | gust MPH | rain 1hr in | rain 24hr in | rain mn in | humidity % | barometer mb |
| 20260502123007 | 36 | 152 | 0.0 | 5.0 | 0.00 | 0.00 | 0.00 | 74 | 1002.2 |
| 20260502121505 | 37 | 152 | 0.0 | 5.0 | 0.00 | 0.00 | 0.00 | 72 | 1001.9 |
| 20260502114502 | 39 | 247 | 2.0 | 16.0 | 0.00 | 0.00 | 0.00 | 67 | 1001.1 |
| 20260502113059 | 36 | 359 | 6.0 | 12.0 | 0.00 | 0.00 | 0.00 | 77 | 1000.6 |
| 20260502111551 | 37 | 182 | 3.0 | 10.0 | 0.00 | 0.00 | 0.00 | 78 | 1000.6 |
| 20260502103043 | 40 | 168 | 2.0 | 8.0 | 0.00 | 0.00 | 0.00 | 71 | 1000.1 |
| 20260502101539 | 41 | 222 | 4.0 | 10.0 | 0.00 | 0.00 | 0.00 | 69 | 1000.2 |
| 20260502091528 | 43 | 273 | 3.0 | 8.0 | 0.00 | 0.00 | 0.00 | 60 | 998.6 |
| 20260502071511 | 42 | 149 | 5.0 | 12.0 | 0.00 | 0.00 | 0.00 | 57 | 997.7 |
| 20260502070010 | 42 | 164 | 5.0 | 12.0 | 0.00 | 0.00 | 0.00 | 58 | 997.8 |
| 20260502064514 | 41 | 189 | 3.0 | 8.0 | 0.00 | 0.00 | 0.00 | 60 | 997.9 |
| 20260502063007 | 41 | 151 | 4.0 | 9.0 | 0.00 | 0.00 | 0.00 | 59 | 998.1 |
| 20260502061505 | 42 | 146 | 2.0 | 11.0 | 0.00 | 0.00 | 0.00 | 57 | 998.1 |
| 20260502060007 | 42 | 166 | 3.0 | 11.0 | 0.00 | 0.00 | 0.00 | 57 | 998.2 |
| 20260502054503 | 41 | 110 | 2.0 | 9.0 | 0.00 | 0.00 | 0.00 | 56 | 998.2 |
| 20260502053001 | 42 | 139 | 1.0 | 5.0 | 0.00 | 0.00 | 0.00 | 55 | 998.4 |
| 20260502051500 | 43 | 149 | 1.0 | 4.0 | 0.00 | 0.00 | 0.00 | 54 | 998.6 |
| 20260502050100 | 43 | 123 | 2.0 | 5.0 | 0.00 | 0.00 | 0.00 | 53 | 998.6 |
| 20260502044558 | 44 | 110 | 2.0 | 8.0 | 0.00 | 0.00 | 0.00 | 51 | 998.7 |
| 20260502043105 | 44 | 122 | 2.0 | 5.0 | 0.00 | 0.00 | 0.00 | 50 | 999.1 |
| 20260502041555 | 44 | 115 | 1.0 | 5.0 | 0.00 | 0.00 | 0.00 | 49 | 999.1 |
| 20260502040053 | 44 | 145 | 1.0 | 8.0 | 0.00 | 0.00 | 0.00 | 50 | 999.4 |
| 20260502034552 | 44 | 153 | 4.0 | 13.0 | 0.00 | 0.00 | 0.00 | 49 | 999.5 |
| 20260502033048 | 45 | 140 | 3.0 | 11.0 | 0.00 | 0.00 | 0.00 | 48 | 999.9 |
| 20260502031547 | 45 | 121 | 3.0 | 9.0 | 0.00 | 0.00 | 0.00 | 47 | 1000.2 |
| 20260502030044 | 46 | 158 | 2.0 | 10.0 | 0.00 | 0.00 | 0.00 | 44 | 1000.4 |
| 20260502024544 | 47 | 160 | 3.0 | 8.0 | 0.00 | 0.00 | 0.00 | 43 | 1000.7 |
| 20260502023041 | 47 | 120 | 2.0 | 8.0 | 0.00 | 0.00 | 0.00 | 42 | 1000.9 |
| 20260502021540 | 48 | 137 | 4.0 | 9.0 | 0.00 | 0.00 | 0.00 | 41 | 1001.1 |
| 20260502020042 | 48 | 130 | 1.0 | 7.0 | 0.00 | 0.00 | 0.00 | 42 | 1001.0 |
| 20260502014551 | 48 | 172 | 3.0 | 9.0 | 0.00 | 0.00 | 0.00 | 40 | 1001.2 |
| 20260502013036 | 49 | 152 | 4.0 | 9.0 | 0.00 | 0.00 | 0.00 | 40 | 1001.3 |
| 20260502011544 | 49 | 183 | 6.0 | 14.0 | 0.00 | 0.00 | 0.00 | 40 | 1001.5 |
| 20260502010032 | 49 | 139 | 6.0 | 13.0 | 0.00 | 0.00 | 0.00 | 39 | 1001.9 |
| 20260502004530 | 49 | 113 | 4.0 | 15.0 | 0.00 | 0.00 | 0.00 | 38 | 1002.1 |
| 20260502003027 | 48 | 158 | 5.0 | 12.0 | 0.00 | 0.00 | 0.00 | 40 | 1002.7 |
| 20260502001527 | 48 | 136 | 6.0 | 16.0 | 0.00 | 0.00 | 0.00 | 40 | 1002.7 |
| 20260502000041 | 49 | 89 | 5.0 | 11.0 | 0.00 | 0.00 | 0.00 | 38 | 1003.0 |
| 20260501234524 | 50 | 118 | 4.0 | 17.0 | 0.00 | 0.00 | 0.00 | 38 | 1003.2 |
| 20260501233021 | 51 | 112 | 5.0 | 14.0 | 0.00 | 0.00 | 0.00 | 37 | 1003.5 |
| 20260501231523 | 50 | 120 | 4.0 | 15.0 | 0.00 | 0.00 | 0.00 | 36 | 1003.8 |
| 20260501230016 | 49 | 131 | 5.0 | 16.0 | 0.00 | 0.00 | 0.00 | 38 | 1004.1 |
| 20260501224512 | 48 | 99 | 5.0 | 15.0 | 0.00 | 0.00 | 0.00 | 37 | 1004.3 |
| 20260501223009 | 48 | 120 | 5.0 | 13.0 | 0.00 | 0.00 | 0.00 | 38 | 1004.7 |
| 20260501221517 | 47 | 106 | 4.0 | 16.0 | 0.00 | 0.00 | 0.00 | 38 | 1004.9 |
| 20260501220004 | 46 | 131 | 2.0 | 14.0 | 0.00 | 0.00 | 0.00 | 40 | 1005.4 |
| 20260501214559 | 46 | 154 | 4.0 | 10.0 | 0.00 | 0.00 | 0.00 | 40 | 1005.6 |
| 20260501213105 | 45 | 134 | 5.0 | 13.0 | 0.00 | 0.00 | 0.00 | 41 | 1005.7 |
| 20260501211554 | 44 | 162 | 7.0 | 12.0 | 0.00 | 0.00 | 0.00 | 42 | 1005.9 |
| 20260501210053 | 44 | 124 | 5.0 | 16.0 | 0.00 | 0.00 | 0.00 | 44 | 1006.0 |
| 20260501204550 | 44 | 89 | 7.0 | 13.0 | 0.00 | 0.00 | 0.00 | 42 | 1006.3 |
| 20260501203049 | 44 | 108 | 4.0 | 17.0 | 0.00 | 0.00 | 0.00 | 43 | 1006.4 |
| 20260501201648 | 44 | 133 | 4.0 | 15.0 | 0.00 | 0.00 | 0.00 | 43 | 1006.5 |
| 20260501200046 | 43 | 163 | 3.0 | 13.0 | 0.00 | 0.00 | 0.00 | 44 | 1006.5 |
| 20260501194547 | 43 | 144 | 4.0 | 13.0 | 0.00 | 0.00 | 0.00 | 43 | 1006.7 |
| 20260501193046 | 43 | 166 | 6.0 | 16.0 | 0.00 | 0.00 | 0.00 | 42 | 1006.6 |
| 20260501191544 | 43 | 155 | 7.0 | 14.0 | 0.00 | 0.00 | 0.00 | 43 | 1006.8 |
| 20260501190044 | 43 | 157 | 5.0 | 12.0 | 0.00 | 0.00 | 0.00 | 44 | 1006.9 |
| 20260501184543 | 43 | 148 | 5.0 | 14.0 | 0.00 | 0.00 | 0.00 | 46 | 1006.9 |
| 20260501183048 | 43 | 102 | 5.0 | 13.0 | 0.00 | 0.00 | 0.00 | 44 | 1006.9 |
| 20260501181542 | 44 | 162 | 5.0 | 12.0 | 0.00 | 0.00 | 0.00 | 42 | 1007.1 |
| 20260501180044 | 44 | 139 | 3.0 | 13.0 | 0.00 | 0.00 | 0.00 | 40 | 1007.0 |
| 20260501174544 | 44 | 152 | 5.0 | 16.0 | 0.00 | 0.00 | 0.00 | 38 | 1007.1 |
| 20260501173038 | 44 | 143 | 5.0 | 13.0 | 0.00 | 0.00 | 0.00 | 38 | 1007.2 |
| 20260501171542 | 44 | 160 | 8.0 | 16.0 | 0.00 | 0.00 | 0.00 | 37 | 1007.2 |
| 20260501170034 | 44 | 168 | 7.0 | 14.0 | 0.00 | 0.00 | 0.00 | 36 | 1007.4 |
| 20260501164532 | 43 | 147 | 3.0 | 14.0 | 0.00 | 0.00 | 0.00 | 38 | 1007.6 |
| 20260501163034 | 43 | 166 | 7.0 | 14.0 | 0.00 | 0.00 | 0.00 | 39 | 1007.7 |
| 20260501161530 | 42 | 180 | 4.0 | 14.0 | 0.00 | 0.00 | 0.00 | 38 | 1007.7 |
| 20260501160030 | 42 | 224 | 5.0 | 16.0 | 0.00 | 0.00 | 0.00 | 38 | 1007.7 |
| 20260501154525 | 41 | 193 | 8.0 | 22.0 | 0.00 | 0.00 | 0.00 | 37 | 1007.9 |
| 20260501153024 | 40 | 224 | 8.0 | 22.0 | 0.00 | 0.00 | 0.00 | 40 | 1007.9 |
| 20260501151522 | 38 | 183 | 10.0 | 20.0 | 0.00 | 0.00 | 0.00 | 42 | 1008.1 |
| 20260501150026 | 37 | 151 | 4.0 | 11.0 | 0.00 | 0.00 | 0.00 | 46 | 1008.5 |